Weather History for KOLV - March, 2013

Change the Weather History Date:

Sunday, March 17, 2013

  Actual Average (KMEM) Record (KMEM)
Temperature  
Mean Temperature 60 °F 54 °F  
Max Temperature 69 °F 64 °F 81 °F (1982)
Min Temperature 51 °F 44 °F 25 °F (1941)
Degree Days  
Heating Degree Days 5 11  
Month to date heating degree days 228  
Since 1 July heating degree days 2678  
Cooling Degree Days 0 1  
Month to date cooling degree days 2  
Year to date cooling degree days 5  
Growing Degree Days 10 (Base 50)    
Moisture  
Dew Point 54 °F    
Average Humidity 85    
Maximum Humidity 100    
Minimum Humidity 56    
Precipitation  
Precipitation 0.10 in 0.17 in 4.26 in (2002)
Month to date precipitation 2.72  
Year to date precipitation 11.09  
Snow  
Snow 0.00 in 0.00 in 18.00 in (1892)
Month to date snowfall 0.3  
Since 1 July snowfall 3.7  
Snow Depth -    
Sea Level Pressure  
Sea Level Pressure 29.84 in    
Wind  
Wind Speed 5 mph (South)    
Max Wind Speed 12 mph    
Max Gust Speed -    
Visibility 9 miles    
Events      
T = Trace of Precipitation, MM = Missing Value Source: NWS Daily Summary

Daily Weather History Graph

Daily Weather History Graph

Search for Another Location

Airport or City:

Trip Planner

Search our weather history database for the weather conditions in past years. The results will help you decide how hot, cold, wet, or windy it might be!

Date:

Astronomy

Mar. 17, 2013 Rise Set
Actual Time 7:06 AM CDT 7:08 PM CDT
Civil Twilight 6:41 AM CDT 7:33 PM CDT
Nautical Twilight 6:12 AM CDT 8:03 PM CDT
Astronomical Twilight 5:42 AM CDT 8:33 PM CDT
Moon 10:32 AM CDT (3/17) 12:04 AM CDT (3/17)
Length of Visible Light 12h 52m
Length of Day
12h 02m
Waxing Crescent, 31% of the Moon is Illuminated
Mar 17
Waxing Crescent
Mar 19
First Quarter
Mar 27
Full
Apr 2
Last Quarter
Apr 10
New

Hourly Weather History & Observations

Time (CDT) Temp. Dew Point Humidity Pressure Visibility Wind Dir Wind Speed Gust Speed Precip Events Conditions
12:15 AM 60.8 °F 53.6 °F 77% 29.89 in 10.0 mi Calm Calm - 0.00 in   Clear
12:35 AM 60.8 °F 53.6 °F 77% 29.89 in 9.0 mi Calm Calm - 0.00 in   Clear
12:55 AM 57.2 °F 53.6 °F 88% 29.88 in 10.0 mi South 5.8 mph - 0.00 in   Clear
1:15 AM 57.2 °F 53.6 °F 88% 29.88 in 10.0 mi South 6.9 mph - 0.00 in   Clear
1:35 AM 57.2 °F 53.6 °F 88% 29.88 in 10.0 mi SSE 5.8 mph - 0.00 in   Clear
1:55 AM 57.2 °F 53.6 °F 88% 29.88 in 10.0 mi South 6.9 mph - 0.00 in   Clear
2:15 AM 55.4 °F 53.6 °F 94% 29.88 in 10.0 mi South 6.9 mph - 0.00 in   Clear
2:35 AM 53.6 °F 51.8 °F 94% 29.88 in 10.0 mi South 5.8 mph - 0.00 in   Clear
2:55 AM 53.6 °F 51.8 °F 94% 29.88 in 10.0 mi South 5.8 mph - 0.00 in   Clear
3:15 AM 53.6 °F 53.6 °F 100% 29.89 in 10.0 mi South 5.8 mph - 0.00 in   Clear
3:35 AM 53.6 °F 53.6 °F 100% 29.88 in 10.0 mi Calm Calm - 0.00 in   Clear
3:55 AM 53.6 °F 53.6 °F 100% 29.88 in 10.0 mi South 3.5 mph - N/A   Clear
4:15 AM 55.4 °F 53.6 °F 94% 29.88 in 9.0 mi Calm Calm - 0.00 in   Clear
4:35 AM 53.6 °F 51.8 °F 94% 29.87 in 9.0 mi Calm Calm - 0.00 in   Partly Cloudy
4:55 AM 51.8 °F 51.8 °F 100% 29.87 in 10.0 mi South 6.9 mph - 0.00 in   Clear
5:15 AM 51.8 °F 51.8 °F 100% 29.87 in 10.0 mi South 6.9 mph - 0.00 in   Clear
5:35 AM 51.8 °F 51.8 °F 100% 29.87 in 10.0 mi South 8.1 mph - 0.00 in   Clear
5:55 AM 51.8 °F 51.8 °F 100% 29.88 in 10.0 mi South 10.4 mph - 0.00 in   Clear
6:15 AM 53.6 °F 53.6 °F 100% 29.88 in 10.0 mi South 9.2 mph - 0.00 in   Scattered Clouds
6:35 AM 55.4 °F 55.4 °F 100% 29.88 in 9.0 mi SSW 11.5 mph - 0.00 in   Partly Cloudy
6:50 AM 53.6 °F 53.6 °F 100% 29.89 in 10.0 mi South 5.8 mph - N/A   Scattered Clouds
6:55 AM 55.4 °F 55.4 °F 100% 29.89 in 10.0 mi SSW 8.1 mph - 0.00 in   Clear
7:50 AM 55.4 °F 55.4 °F 100% 29.91 in 10.0 mi Calm Calm - N/A   Overcast
8:50 AM 53.6 °F 53.6 °F 100% 29.91 in 5.0 mi NNE 6.9 mph - N/A   Overcast
9:50 AM 53.6 °F 53.6 °F 100% 29.92 in 5.0 mi NE 3.5 mph - N/A   Overcast
10:50 AM 51.8 °F 51.8 °F 100% 29.92 in 5.0 mi NE 5.8 mph - N/A   Overcast
11:50 AM 57.2 °F 55.4 °F 94% 29.91 in 7.0 mi Calm Calm - N/A   Mostly Cloudy
12:50 PM 66.2 °F 57.2 °F 73% 29.88 in 10.0 mi South 8.1 mph - N/A   Mostly Cloudy
2:50 PM 62.6 °F 51.8 °F 68% 29.82 in 10.0 mi NNE 9.2 mph - N/A   Mostly Cloudy
3:50 PM 66.2 °F 53.6 °F 64% 29.79 in 10.0 mi Calm Calm - N/A   Mostly Cloudy
4:50 PM 68.0 °F 55.4 °F 64% 29.76 in 10.0 mi Calm Calm - N/A   Mostly Cloudy
6:45 PM 69.8 °F 53.6 °F 56% 29.75 in 10.0 mi South 8.1 mph - N/A   Mostly Cloudy
7:50 PM 68.0 °F 53.6 °F 60% 29.74 in 10.0 mi South 8.1 mph - N/A   Mostly Cloudy
9:15 PM 66.2 °F 51.8 °F 60% 29.73 in 9.0 mi South 8.1 mph - N/A   Mostly Cloudy
9:35 PM 66.2 °F 51.8 °F 60% 29.74 in 9.0 mi SSE 6.9 mph - 0.00 in   Mostly Cloudy
9:55 PM 66.2 °F 51.8 °F 60% 29.74 in 9.0 mi SSE 8.1 mph - 0.00 in   Mostly Cloudy
10:15 PM 66.2 °F 51.8 °F 60% 29.74 in 9.0 mi South 8.1 mph - 0.00 in   Mostly Cloudy
10:35 PM 66.2 °F 51.8 °F 60% 29.74 in 10.0 mi SSE 10.4 mph - 0.00 in   Mostly Cloudy
10:55 PM 64.4 °F 51.8 °F 64% 29.73 in 10.0 mi SSE 8.1 mph - 0.00 in   Mostly Cloudy
11:15 PM 64.4 °F 53.6 °F 68% 29.72 in 9.0 mi SSE 8.1 mph - 0.00 in   Mostly Cloudy
11:35 PM 62.6 °F 57.2 °F 82% 29.73 in 3.0 mi SSW 5.8 mph - 0.06 in   Mostly Cloudy
11:55 PM 60.8 °F 60.8 °F 100% 29.72 in 7.0 mi Calm Calm - 0.10 in   Mostly Cloudy